Flag for U.S.A. Weather past 2 weeks in Juneau, Alaska, U.S.A.

Now
35 °F

Mostly cloudy.


Feels Like: 35 °F
Forecast: 35 / 41 °F
Wind: No wind

Location: Juneau International Airport

Current Time: Mar 6, 2015 at 2:51:44 AM

Latest Report: Mar 6, 2015 at 1:53 AM


Visibility: 10 mi

Pressure: 30.23 "Hg

Humidity: 100%

Dew point: 35 °F

Location of JuneauLocation

Historic Weather in Juneau — Graph

°F

Juneau temperature yesterday

Maximum temperature yesterday: 39 °F (at 12:53 AM)
Minimum temperature yesterday: 34 °F (at 11:53 AM)
Average temperature yesterday: 36 °F

Past Weeks' High & Low Weather Summary

 TemperatureHumidityPressure
High47 °F (Feb 26, 12:53 PM)100% (Feb 20, 12:53 AM)30.50 "Hg (Feb 20, 12:53 AM)
Low24 °F (Feb 27, 3:53 AM)32% (Mar 3, 2:53 PM)29.86 "Hg (Mar 5, 7:53 AM)
Average37 °F87%30.30 "Hg
* Reported Feb 19 1:53 AM — Mar 6 1:53 AM, Juneau, Weather by CustomWeather, © 2015

Note: Actual official high and low records may vary slightly from our data, if they occured in-between our weather recording intervals... More about our weather records

Advertising

Juneau weather history for previous 24 hours

 ConditionsComfort  
Time TempWeatherWind HumidityBarometerVisibility
1:53 AM
Fri, Mar 6
35 °FMostly cloudy.No wind100%30.23 "Hg10 mi
12:53 AM35 °FMostly cloudy.3 mph100%30.21 "Hg10 mi
11:53 PM
Thu, Mar 5
35 °FLow clouds.No wind96%30.18 "Hg10 mi
10:53 PM36 °FMostly cloudy.No wind100%30.16 "Hg10 mi
9:53 PM36 °FMostly cloudy.No wind97%30.12 "Hg10 mi
8:53 PM36 °FMostly cloudy.3 mph97%30.08 "Hg10 mi
7:53 PM36 °FLight rain. Mostly cloudy.3 mph97%30.05 "Hg8 mi
6:53 PM36 °FLight rain. Mostly cloudy.6 mph92%30.01 "Hg7 mi
5:53 PM36 °FLight rain. Fog.5 mph92%29.98 "Hg6 mi
4:53 PM36 °FLight rain. Fog.No wind97%29.95 "Hg6 mi
3:53 PM36 °FLight rain. Fog.No wind92%29.92 "Hg4 mi
2:53 PM34 °FLight rain. Fog.3 mph97%29.90 "Hg3 mi
1:53 PM34 °FLight snow. Fog.No wind100%29.88 "Hg1 mi
12:53 PM34 °FLight snow. Fog.No wind97%29.88 "Hg1 mi
11:53 AM34 °FLight snow. Fog.No wind92%29.87 "Hg2 mi
10:53 AM35 °FLight rain. Fog.No wind92%29.87 "Hg5 mi
9:53 AM37 °FLight rain. Cloudy.No wind89%29.86 "Hg7 mi
8:53 AM38 °FLight rain. Cloudy.3 mph93%29.86 "Hg7 mi
7:53 AM37 °FLight rain. Mostly cloudy.3 mph96%29.86 "Hg7 mi
6:53 AM37 °FLight rain. Mostly cloudy.6 mph96%29.86 "Hg9 mi
5:53 AM38 °FLight rain. Low clouds.9 mph97%29.87 "Hg10 mi
4:53 AM38 °FLight rain. Low clouds.10 mph97%29.89 "Hg10 mi
3:53 AM39 °FLight rain. Low clouds.9 mph93%29.91 "Hg10 mi
2:53 AM39 °FLow clouds.16 mph93%29.93 "Hg10 mi
Weather by CustomWeather, © 2015

See weather overviewHow to use our weather pages